Zurück zum Katalog

METEOR 1-26

AktivWetterPO
NORAD 9481·PAYLOAD·🇷🇺 Russia

Gestartet Oct 15, 1976 von Plesetsk Cosmodrome

Loading…

Nächste Überflüge (nächste 24 Stunden)

TLE

AktuellSource: Space-Track

Epoche: Sep 14, 2026, 13:43 UTC

1 09481U 76102A   26257.57187398  .00000168  00000-0  87149-4 0  9996
2 09481  81.2182 317.1134 0023265  18.3434 341.8570 14.10369803566276

Verfolge METEOR 1-26 in Echtzeit mit AllMySat

Download on the App Store